Simultaneous Nadir Overpasses (SNOs) Predictions

Prediction of SNOs between LANDSAT-8 and METOP-B Satellite Orbit:

Table of predicted SNOs for the next 14.0 days since TLE Epoch: 6/28/2014
Index Date (LANDSAT-8) Time (LANDSAT-8) Lat,Lon (LANDSAT-8) SZA (LANDSAT-8 ) Date (METOP-B) Time (METOP-B) Lat,Lon (METOP-B) SZA (METOP-B ) Distance(km) Time Diff (sec)
1 06/29/2014 16:10:17 -81.15, 157.80 119.94 06/29/2014 16:10:03 -81.15, 157.86 119.93 1.23 14
2 06/29/2014 16:59:42 81.18, -34.10 60.14 06/29/2014 17:00:42 81.18, -33.91 60.19 3.24 60
3 07/02/2014 11:44:34 -81.16,-135.66 119.75 07/02/2014 11:44:22 -81.16,-135.53 119.74 2.16 12
4 07/02/2014 12:33:59 81.18, 32.43 60.32 07/02/2014 12:35:02 81.18, 32.27 60.33 2.90 63
5 07/05/2014 07:18:54 -81.15, -69.32 119.54 07/05/2014 07:18:43 -81.15, -69.33 119.54 0.34 11
6
